Theta_e
350 350 348 348 347 345 342 338 339 333 334 340 343 348 349 351 353 355 357 351 348 347 344 344 345 347 349 351 352 353 354 354 354 354 354 355 356 357
348 349 349 347 346 345 343 343 341 338 335 338 342 348 354 354 354 356 357 351 348 345 343 342 342 344 345 346 347 347 349 350 350 350 350 350 351 353
348 349 350 350 349 348 345 345 345 343 340 343 343 352 353 352 356 359 355 358 358 344 343 341 340 341 342 343 343 343 343 344 344 345 346 347 348 349
347 347 348 348 349 349 347 346 345 345 346 342 346 346 349 350 352 352 352 354 359 349 342 340 338 337 337 336 336 336 335 336 337 338 340 342 343 344
349 347 348 348 348 347 346 346 346 347 348 344 344 347 350 349 351 351 352 355 356 350 342 338 337 336 334 331 331 329 327 327 326 327 328 330 333 336
350 349 349 348 348 348 347 347 347 347 346 344 345 346 348 350 347 346 347 349 351 351 347 341 340 333 331 329 329 327 321 319 319 319 319 320 322 323
349 350 350 350 346 346 348 348 348 345 344 344 344 344 344 345 346 347 345 348 350 351 350 349 345 342 337 330 330 326 322 319 317 315 314 313 314 315
345 347 350 346 345 340 339 341 346 346 345 343 344 341 345 346 346 345 343 343 341 347 348 348 349 343 338 334 324 322 320 316 315 315 314 314 314 313
347 346 346 348 345 350 340 337 338 338 342 348 345 345 347 346 346 344 343 344 343 347 348 345 343 340 333 327 322 321 318 315 315 314 314 314 312 312
346 348 346 348 349 349 350 347 347 346 344 345 349 350 349 349 347 349 347 346 346 347 347 341 339 333 328 328 323 321 318 315 315 315 315 314 312 309
340 347 347 348 339 333 348 347 348 348 337 333 336 335 334 334 340 345 341 341 339 341 340 341 335 333 329 329 327 323 319 316 313 315 315 314 311 309
336 341 335 343 331 328 344 347 344 346 346 341 341 334 332 337 331 347 345 341 339 336 338 336 330 332 329 330 330 328 327 317 313 312 313 313 310 320
331 334 338 329 324 323 326 347 344 348 342 347 346 344 342 343 341 343 347 346 340 339 335 332 328 327 327 326 329 329 326 325 323 320 310 309 308 313
330 333 336 326 321 320 322 328 326 331 348 345 344 343 341 340 340 340 339 341 341 342 336 334 328 326 325 324 326 327 326 326 324 323 323 315 309 309
331 332 328 322 318 321 320 323 322 336 343 341 342 344 345 346 341 338 336 336 336 335 333 333 329 326 326 326 326 326 327 327 324 323 324 323 324 324
328 331 329 326 324 329 330 326 332 336 339 341 343 346 346 338 338 335 333 332 332 331 333 332 332 330 328 328 328 328 327 326 326 325 324 324 325 325
326 331 328 328 328 331 333 337 334 336 335 342 344 342 341 338 337 335 334 331 330 328 328 330 332 332 332 331 327 329 329 327 329 328 325 327 329 328
320 326 325 326 327 328 330 333 335 334 336 341 342 341 339 337 334 332 332 332 330 327 326 329 330 329 328 334 331 331 332 330 333 331 328 325 327 332
322 326 327 329 329 331 333 333 333 336 340 340 340 340 338 337 332 331 331 331 330 330 328 330 331 331 327 325 332 324 333 333 329 329 328 326 326 329
323 323 325 328 331 334 335 336 335 335 334 337 338 338 337 335 332 332 332 331 333 331 329 329 330 330 329 328 327 332 316 333 331 330 329 328 327 320
321 323 327 330 332 334 337 337 338 335 334 334 335 335 336 335 334 334 333 322 325 332 330 329 332 326 334 331 325 329 332 313 324 331 330 327 325 325
326 328 329 330 330 332 336 338 336 333 333 334 334 334 335 337 335 333 333 331 331 332 331 333 331 330 328 326 327 329 327 324 317 315 315 318 326 321
324 326 326 328 330 332 335 337 335 335 334 335 334 333 335 332 335 334 333 333 333 331 330 330 328 327 327 327 323 324 325 327 327 325 326 314 313 312
Wind_Speed
5 5 4 3 4 3 2 2 2 1 2 2 2 2 2 3 6 6 7 7 11 12 11 13 12 13 13 13 14 14 14 14 14 15 15 16 17 18
5 6 5 4 3 3 3 3 3 2 2 2 2 3 3 3 3 5 6 8 7 10 10 10 10 11 12 13 13 14 15 16 16 17 17 17 17 18
7 6 7 4 5 4 4 3 4 3 3 2 2 2 2 2 1 2 4 5 5 7 6 8 9 12 13 12 12 12 12 12 13 15 15 16 17 17
10 8 9 6 7 5 4 6 6 5 4 5 2 2 4 2 3 4 3 5 6 7 8 8 7 8 8 7 7 9 10 11 12 13 13 14 14 13
12 11 11 8 8 5 6 5 4 4 4 4 4 2 2 1 2 3 3 2 3 6 7 6 3 1 2 2 2 4 7 9 6 7 8 9 9 10
11 12 12 12 11 9 8 9 7 5 5 5 5 4 3 1 2 3 3 1 3 2 1 4 5 8 7 6 5 5 6 7 7 7 6 6 4 3
11 12 13 14 16 13 7 7 7 6 5 5 5 3 3 3 4 1 4 3 3 3 2 2 3 2 2 2 4 5 6 7 7 6 5 5 6 6
12 12 12 14 14 16 17 13 11 8 8 5 6 7 8 4 4 4 3 2 3 2 3 2 4 3 3 2 4 5 6 6 5 4 5 6 6 5
11 11 10 10 11 10 13 15 14 15 14 9 9 8 6 7 5 5 6 5 5 3 4 4 3 3 3 4 6 6 5 5 4 3 4 6 7 6
11 11 10 11 10 12 11 11 12 11 12 9 11 10 8 6 7 3 3 4 3 3 4 4 3 3 3 3 7 6 5 4 1 1 3 4 4 6
10 10 11 11 12 16 12 12 11 10 8 13 14 10 10 12 8 5 5 3 4 2 4 3 2 2 2 3 5 8 7 7 6 6 6 6 6 6
10 11 13 15 13 17 14 12 12 11 9 6 5 6 9 9 11 10 6 6 4 3 4 5 3 3 2 2 2 4 5 8 9 9 9 9 7 5
7 9 11 13 18 17 19 13 13 10 10 8 7 6 6 7 7 9 9 7 6 7 4 3 3 3 1 0 1 3 5 4 5 4 10 11 10 7
10 10 11 16 16 18 13 16 14 11 6 7 6 6 7 7 6 7 7 7 4 4 5 6 3 4 3 2 2 2 4 5 5 5 5 5 7 10
9 14 16 17 16 15 18 17 14 8 8 8 8 7 7 5 6 5 5 5 5 4 4 7 3 5 3 3 2 3 2 3 5 6 5 5 5 3
15 10 10 10 10 9 7 10 9 10 11 10 9 7 6 6 7 7 6 7 4 4 5 7 7 6 4 4 3 3 4 3 2 4 4 5 6 6
8 8 8 9 11 11 11 11 8 9 12 9 8 8 7 6 6 7 5 6 5 4 5 5 6 6 4 3 4 7 6 5 6 5 4 6 7 7
4 7 8 6 7 9 10 12 11 12 11 10 9 9 9 8 8 7 6 7 8 7 5 5 6 3 2 8 15 10 6 7 6 5 4 5 7 6
6 8 6 6 7 6 7 9 11 11 12 11 10 10 10 9 11 9 8 8 7 7 7 6 6 6 6 7 2 17 7 6 2 4 5 6 5 8
9 8 8 8 7 7 8 9 8 7 9 10 10 9 9 10 11 10 10 9 9 8 7 6 6 8 8 4 2 3 20 9 5 6 4 2 6 13
10 10 10 9 8 8 9 9 11 9 9 9 10 10 10 10 10 9 9 11 10 9 8 7 9 7 5 2 1 5 3 19 10 5 0 3 4 4
9 10 9 8 9 10 9 8 6 7 8 9 10 10 10 9 10 10 9 10 9 9 6 5 4 4 4 4 8 7 3 1 3 12 7 4 6 4
11 11 10 10 10 10 10 10 10 8 9 9 9 10 10 10 9 9 10 9 9 8 6 5 4 4 4 5 5 4 5 6 1 1 4 4 2 6
Wind_Direction
236 231 235 215 198 201 187 168 176 276 301 314 307 301 293 249 242 236 238 220 219 228 224 218 226 235 233 234 236 239 245 248 249 250 251 252 253 254
232 231 232 244 227 197 202 189 188 188 244 235 266 287 321 298 245 239 247 239 239 216 212 230 229 240 241 238 239 239 240 243 243 245 246 247 248 249
224 220 232 210 236 221 206 209 213 179 216 271 254 275 279 303 305 212 249 259 248 232 218 219 225 239 241 241 242 251 255 257 259 260 260 258 255 254
225 218 230 223 223 216 211 222 226 211 204 237 253 267 246 266 281 290 261 262 270 281 276 267 259 255 249 254 268 267 268 264 261 264 266 264 263 264
217 218 225 214 228 204 206 209 211 218 214 221 241 235 264 255 301 266 276 283 255 259 258 257 250 244 95 47 4 315 291 283 281 281 286 290 295 295
216 217 215 211 219 214 211 213 210 207 218 227 235 241 238 262 254 268 281 264 280 273 57 45 114 103 91 80 73 63 56 65 61 56 49 41 30 344
221 222 221 215 211 204 198 213 195 210 208 218 235 237 238 222 216 216 241 267 273 239 264 235 172 172 114 111 120 103 97 87 74 56 34 13 354 342
225 225 229 212 214 205 205 203 193 208 217 207 232 235 235 216 195 211 237 245 267 172 209 235 182 194 188 181 129 126 112 92 73 46 24 5 348 331
248 230 222 225 213 220 223 220 212 208 214 210 229 225 234 203 194 214 213 219 236 218 214 253 177 228 179 163 169 159 138 113 97 53 10 359 352 335
268 246 228 223 205 207 216 221 225 220 219 215 227 232 224 184 197 200 221 221 235 228 188 247 163 193 176 198 198 181 172 157 177 278 310 339 345 321
270 248 232 226 218 204 215 220 226 229 213 210 215 217 204 190 188 183 218 202 252 250 192 245 176 180 199 220 210 208 212 216 228 250 272 286 301 316
244 261 239 239 220 208 210 215 225 223 200 190 210 217 208 216 196 201 189 206 212 256 180 203 166 171 228 213 214 205 223 230 242 248 257 261 263 282
233 253 249 234 230 220 211 214 217 203 206 204 209 205 193 193 198 204 206 204 203 227 164 160 167 169 224 211 244 218 221 231 239 255 242 249 247 234
215 215 235 225 222 226 221 232 211 196 198 192 195 200 205 202 200 196 193 201 207 232 150 178 175 183 174 182 236 193 226 232 236 254 254 256 249 251
230 239 228 210 217 225 219 218 218 221 206 202 206 205 199 191 158 167 178 179 180 194 177 187 179 170 190 210 201 211 242 210 216 241 251 247 254 238
233 241 245 239 251 254 248 224 203 212 212 206 203 195 156 158 174 168 180 172 171 176 185 191 192 174 197 226 228 241 218 262 186 228 252 266 257 245
216 236 244 239 239 236 232 235 217 204 216 205 190 175 179 172 175 176 175 160 177 173 180 182 196 210 239 236 242 244 244 248 246 248 227 275 266 246
178 210 221 224 236 238 237 234 217 202 210 209 192 180 181 177 169 176 173 180 187 191 187 175 168 176 237 241 216 252 249 255 261 246 238 262 276 269
210 212 218 216 221 234 234 227 229 233 210 200 195 187 179 180 168 175 176 180 196 199 200 168 172 191 210 244 261 214 242 254 245 258 229 222 272 284
216 222 230 230 219 221 241 242 226 209 215 217 189 180 179 174 175 174 177 181 196 203 195 178 195 200 217 237 281 285 203 241 235 254 256 239 260 279
208 219 230 234 229 232 231 234 224 211 199 198 204 176 177 173 171 168 175 183 180 193 197 201 216 197 222 150 246 253 267 218 254 257 133 283 289 285
223 228 230 232 237 235 238 219 216 187 188 197 197 187 170 175 162 162 176 177 187 191 200 199 140 150 175 193 244 263 275 296 264 227 269 283 289 286
229 235 241 237 226 220 225 216 202 195 187 190 197 185 164 166 158 168 176 185 179 182 193 192 157 169 214 223 226 246 240 268 304 102 112 52 221 246